SCP
0 0 0 0 0 0 0 0 0 0 0 0 0 0 0 0 0 0 0 0 0 0 0 0 0 0 0 0 0 0 0 0 0 0 0 0 0 0
0 0 0 0 0 0 0 0 0 0 0 0 0 0 0 0 0 0 0 0 0 0 0 0 0 0 0 0 0 0 0 0 0 0 0 0 0 0
0 0 0 0 0 0 0 0 0 0 0 0 0 0 0 0 0 0 0 0 0 0 0 0 0 0 0 0 0 0 0 0 0 0 0 0 0 0
0 0 0 0 0 0 0 0 0 0 0 0 0 0 0 0 0 0 0 0 0 0 0 0 0 0 0 0 0 0 0 0 0 0 0 0 0 0
0 0 0 0 0 0 0 0 0 0 0 0 0 0 0 0 0 0 0 0 0 0 0 0 0 0 0 0 0 0 0 0 0 0 0 0 0 0
0 0 0 0 0 0 0 0 0 0 0 0 0 0 0 0 0 0 0 0 0 0 0 0 0 0 0 0 0 0 0 0 0 0 0 0 0 0
0 0 0 0 0 0 0 0 0 0 0 0 0 0 0 0 0 0 0 0 0 0 0 0 0 0 0 0 0 0 0 0 0 0 0 0 0 0
0 0 0 0 0 0 0 0 0 0 0 0 0 0 0 0 0 0 0 0 0 0 0 0 0 0 0 0 0 0 0 0 0 0 0 0 0 0
0 0 0 0 0 0 0 0 0 0 0 0 0 0 0 0 0 0 0 0 0 0 0 0 0 0 0 0 0 0 0 0 0 0 0 0 0 0
-0 0 0 0 0 0 0 0 0 0 0 0 0 0 0 0 0 0 0 0 0 0 0 0 0 0 0 0 0 0 0 0 0 0 0 0 0 0
-0 -0 0 0 0 0 0 0 0 0 0 0 0 0 0 0 0 0 0 0 0 0 0 0 0 0 0 0 0 0 0 0 0 0 0 0 0 0
-0 -0 0 0 0 0 0 0 0 0 0 0 0 0 0 0 0 0 0 0 0 0 0 0 0 0 0 0 0 0 0 0 0 0 0 0 0 0
-0 -0 -0 0 0 0 0 0 0 0 0 0 0 0 0 0 0 0 0 0 0 0 0 0 0 0 0 0 0 0 0 0 0 0 0 0 0 0
0 -0 -0 0 0 0 0 0 0 0 0 0 0 0 0 0 0 0 0 0 0 0 0 0 0 0 0 0 0 0 0 0 0 0 0 0 0 0
-0 0 -0 0 0 0 0 0 0 0 0 0 0 0 0 0 0 0 0 0 0 0 0 0 0 0 0 0 0 0 0 0 0 0 0 0 0 0
0 -0 -0 -0 -0 0 0 0 0 0 0 0 0 0 0 0 0 0 0 0 0 0 0 0 0 0 0 0 0 0 0 -0 0 0 0 0 0 0
0 0 -0 -0 -0 0 0 0 0 0 0 0 0 0 0 0 0 0 0 0 0 0 0 0 0 0 0 0 0 0 0 0 0 0 0 0 0 0
0 0 -0 -0 -0 0 0 0 0 0 0 0 0 0 0 0 0 0 0 0 0 0 0 0 0 0 0 0 0 0 0 0 0 0 0 0 0 0
0 0 -0 -0 -0 0 0 0 0 0 0 0 0 0 0 0 0 0 0 0 0 0 0 0 0 0 0 0 0 0 0 0 0 0 0 0 0 0
0 -0 0 -0 -0 0 0 0 0 0 0 0 0 0 0 0 0 0 0 0 0 0 0 0 0 0 0 0 0 0 0 0 0 0 0 0 0 0
0 -0 0 0 -0 0 0 0 0 0 0 0 0 0 0 0 0 0 0 0 0 0 0 0 0 0 0 0 0 0 0 0 0 0 0 0 0 0
0 -0 0 0 -0 0 0 0 0 0 0 0 0 0 0 0 0 0 0 0 0 0 0 0 0 0 0 0 0 0 0 0 0 0 0 0 0 0
0 0 0 0 0 0 0 0 0 0 0 0 0 0 0 0 0 0 0 0 0 0 0 0 0 0 0 0 0 0 0 0 0 0 0 0 0 0
Wind_Speed_500mb
71 87 101 92 97 77 90 91 70 48 52 52 62 71 85 73 64 59 53 46 47 42 39 36 34 32 30 28 29 30 32 36 44 52 60 67 69 73
81 66 99 99 95 99 84 89 82 61 49 45 49 54 49 65 70 62 56 52 49 45 42 40 37 34 30 28 30 29 30 36 44 50 60 65 69 74
74 90 74 101 103 99 97 84 76 69 62 48 47 42 47 47 56 67 61 57 55 51 46 43 39 33 30 29 29 27 28 36 44 51 58 62 66 72
52 77 74 87 105 99 96 96 83 74 72 58 47 42 41 48 45 48 61 63 58 54 50 45 37 34 31 30 26 24 28 36 44 51 54 60 69 66
46 64 72 92 100 102 109 100 85 76 68 67 55 45 36 38 45 48 48 57 59 56 54 46 39 34 30 28 25 22 28 35 43 50 53 62 63 58
62 48 81 76 87 101 108 106 96 92 72 68 63 50 40 38 41 44 50 48 54 60 53 47 42 34 30 25 22 23 28 33 41 44 55 58 55 55
75 53 75 80 73 75 99 103 103 101 102 80 75 69 53 48 48 46 45 39 44 47 43 46 43 36 29 24 19 22 24 31 35 44 52 52 49 54
90 73 40 89 83 73 70 87 93 107 106 108 102 94 82 62 53 52 45 46 39 40 42 44 41 35 29 19 17 19 22 27 33 43 49 43 47 52
79 90 60 77 86 72 69 83 96 90 107 110 117 98 94 82 67 56 45 38 39 30 44 43 41 35 25 17 14 17 20 23 34 42 39 41 47 47
76 95 88 51 97 80 70 76 99 98 100 106 111 99 94 87 62 47 38 41 38 36 38 47 43 35 24 16 14 15 14 25 33 36 35 40 41 45
74 82 99 72 83 92 78 76 95 100 97 91 95 90 97 90 73 53 50 53 52 46 47 41 45 35 22 19 16 10 15 23 31 31 31 35 36 41
73 78 98 92 65 98 93 82 79 92 103 98 96 85 80 88 85 76 63 62 61 52 57 50 43 32 25 23 17 10 13 20 25 25 27 29 32 35
66 74 85 101 72 109 97 79 73 77 94 94 90 84 76 77 81 73 63 56 60 58 60 55 44 36 26 23 18 13 10 13 18 20 23 25 29 34
66 73 75 99 71 119 104 90 62 80 89 100 101 96 96 97 90 77 69 62 61 62 44 49 42 36 27 26 21 16 6 8 9 15 19 24 28 34
63 72 75 87 100 101 110 91 72 93 100 103 112 113 112 100 97 88 78 71 70 62 46 46 40 32 30 25 19 13 3 4 5 10 14 18 21 26
63 66 69 76 106 69 115 94 81 98 105 104 114 115 115 108 102 94 87 82 79 66 56 51 44 35 29 25 19 12 2 1 3 5 8 13 16 20
68 72 70 63 74 87 106 91 97 110 107 103 117 117 119 114 106 98 90 90 86 78 68 58 50 37 34 26 22 13 4 3 5 1 6 8 12 17
68 74 71 64 60 76 109 104 110 115 110 104 110 116 125 119 112 104 96 95 90 80 68 63 53 45 43 30 23 13 7 7 8 8 1 5 10 15
68 71 70 66 60 67 121 118 113 113 109 104 106 118 119 120 116 112 107 99 87 75 68 60 50 50 47 37 26 20 12 10 10 8 4 4 6 13
59 64 66 66 71 59 117 119 105 112 113 107 110 116 115 118 119 116 112 103 89 80 76 64 53 53 45 34 33 26 19 16 11 9 5 6 7 12
64 67 67 64 72 63 117 130 108 111 115 113 111 110 114 119 121 120 111 102 92 86 80 67 62 56 47 38 36 32 24 19 17 13 8 11 9 11
62 63 66 58 66 73 113 126 118 114 117 116 113 115 117 119 123 119 115 108 98 91 80 70 70 64 52 44 35 32 30 27 23 17 14 14 11 15
62 61 61 54 54 68 116 135 130 116 115 116 117 117 119 124 122 115 117 108 100 95 83 79 75 67 54 46 39 36 33 30 26 17 15 18 22 26
Wind_Direction_500mb
267 254 239 235 237 227 235 239 231 226 233 241 239 240 240 238 234 234 234 234 238 241 245 251 256 265 277 291 302 309 318 327 332 334 334 332 334 339
252 261 246 242 238 239 228 238 234 231 241 240 247 244 243 239 234 233 233 232 236 239 241 245 253 261 275 286 293 306 321 325 331 334 330 331 338 341
252 254 263 245 240 237 234 231 228 225 229 235 241 243 235 233 230 227 228 231 232 236 238 242 249 259 269 279 288 306 319 325 329 328 328 335 339 341
237 253 255 254 243 239 238 230 222 227 228 227 230 235 234 231 229 226 227 229 230 232 236 240 246 254 263 273 286 301 317 321 328 324 333 336 340 340
238 250 246 245 247 248 241 236 234 218 221 225 221 223 226 227 227 226 227 226 227 229 232 236 241 248 259 271 282 299 311 324 321 330 334 338 341 343
250 242 244 246 251 247 244 239 219 212 213 220 216 218 223 223 222 222 226 227 222 226 229 233 236 239 247 259 272 294 313 319 326 329 335 338 344 348
256 254 243 236 248 254 248 242 238 222 218 215 216 211 219 222 223 218 216 219 222 227 228 228 228 229 236 246 270 298 310 321 322 334 334 341 346 355
257 256 250 240 241 253 256 255 253 235 230 215 222 224 221 222 225 216 208 207 212 216 218 216 217 220 223 233 276 296 308 314 329 331 336 347 354 0
261 255 256 245 240 241 254 253 253 254 243 239 228 226 220 220 217 212 204 214 223 220 217 206 204 209 212 237 268 284 301 317 327 332 344 350 1 359
267 255 257 258 241 236 243 249 246 245 243 239 238 235 235 220 210 212 220 222 220 216 204 200 196 198 211 233 247 268 298 320 325 336 350 357 2 360
271 259 255 254 243 238 238 240 241 239 243 241 230 233 226 206 206 204 214 219 208 201 194 190 191 198 205 224 235 252 302 315 328 342 353 1 4 2
275 265 253 249 256 240 235 238 241 241 236 230 229 224 217 218 210 207 216 213 203 193 193 191 191 196 200 212 211 241 290 316 334 343 354 6 7 2
281 275 256 246 264 236 232 234 237 240 238 231 221 213 200 192 197 206 212 217 205 200 197 194 197 199 191 178 203 228 263 326 331 343 356 8 7 1
281 280 266 251 265 236 235 235 238 241 237 229 218 202 192 194 199 203 203 201 208 204 204 200 204 202 200 203 205 215 247 325 330 343 359 7 11 359
278 280 274 254 245 243 237 235 237 233 229 221 214 200 195 196 198 200 201 199 197 201 201 198 199 201 201 206 214 207 208 332 330 347 5 13 5 6
286 290 279 261 251 260 231 230 235 235 229 223 214 203 198 195 197 201 197 195 193 195 192 194 197 201 202 204 212 206 197 99 303 329 20 16 357 12
294 293 288 264 257 249 225 223 230 227 224 217 210 202 193 194 197 198 199 196 196 194 190 194 196 198 198 203 204 196 146 171 152 317 23 22 1 26
288 286 283 271 247 242 216 214 219 220 218 211 208 205 195 195 198 195 198 200 197 193 195 196 198 196 193 190 193 190 168 184 149 135 54 36 12 38
281 279 275 272 242 231 212 212 211 215 214 211 208 204 196 195 196 194 193 197 193 193 194 200 200 200 196 192 194 183 182 176 148 137 117 78 47 59
275 273 274 270 254 245 211 212 211 212 210 206 203 199 195 194 194 195 193 193 192 191 193 196 197 198 204 206 192 187 183 168 158 163 146 113 78 70
281 276 273 265 261 248 212 214 212 212 207 203 200 199 195 195 195 196 195 194 192 194 195 195 193 194 196 201 189 179 178 172 164 159 150 134 124 99
287 278 278 266 251 246 212 215 210 209 208 202 199 197 194 198 198 195 197 193 195 195 196 192 191 193 196 198 190 184 175 170 160 167 145 123 164 130
292 284 281 267 244 230 211 213 211 209 205 200 198 200 197 197 198 199 198 196 194 196 194 189 191 191 195 192 190 187 178 168 154 159 114 111 118 114
Wind_Speed_850mb
71 87 101 92 97 77 90 91 70 48 52 52 62 71 85 73 64 59 53 46 47 42 39 36 34 32 30 28 29 30 32 36 44 52 60 67 69 73
81 66 99 99 95 99 84 89 82 61 49 45 49 54 49 65 70 62 56 52 49 45 42 40 37 34 30 28 30 29 30 36 44 50 60 65 69 74
74 90 74 101 103 99 97 84 76 69 62 48 47 42 47 47 56 67 61 57 55 51 46 43 39 33 30 29 29 27 28 36 44 51 58 62 66 72
52 77 74 87 105 99 96 96 83 74 72 58 47 42 41 48 45 48 61 63 58 54 50 45 37 34 31 30 26 24 28 36 44 51 54 60 69 66
46 64 72 92 100 102 109 100 85 76 68 67 55 45 36 38 45 48 48 57 59 56 54 46 39 34 30 28 25 22 28 35 43 50 53 62 63 58
62 48 81 76 87 101 108 106 96 92 72 68 63 50 40 38 41 44 50 48 54 60 53 47 42 34 30 25 22 23 28 33 41 44 55 58 55 55
75 53 75 80 73 75 99 103 103 101 102 80 75 69 53 48 48 46 45 39 44 47 43 46 43 36 29 24 19 22 24 31 35 44 52 52 49 54
90 73 40 89 83 73 70 87 93 107 106 108 102 94 82 62 53 52 45 46 39 40 42 44 41 35 29 19 17 19 22 27 33 43 49 43 47 52
79 90 60 77 86 72 69 83 96 90 107 110 117 98 94 82 67 56 45 38 39 30 44 43 41 35 25 17 14 17 20 23 34 42 39 41 47 47
76 95 88 51 97 80 70 76 99 98 100 106 111 99 94 87 62 47 38 41 38 36 38 47 43 35 24 16 14 15 14 25 33 36 35 40 41 45
74 82 99 72 83 92 78 76 95 100 97 91 95 90 97 90 73 53 50 53 52 46 47 41 45 35 22 19 16 10 15 23 31 31 31 35 36 41
73 78 98 92 65 98 93 82 79 92 103 98 96 85 80 88 85 76 63 62 61 52 57 50 43 32 25 23 17 10 13 20 25 25 27 29 32 35
66 74 85 101 72 109 97 79 73 77 94 94 90 84 76 77 81 73 63 56 60 58 60 55 44 36 26 23 18 13 10 13 18 20 23 25 29 34
66 73 75 99 71 119 104 90 62 80 89 100 101 96 96 97 90 77 69 62 61 62 44 49 42 36 27 26 21 16 6 8 9 15 19 24 28 34
63 72 75 87 100 101 110 91 72 93 100 103 112 113 112 100 97 88 78 71 70 62 46 46 40 32 30 25 19 13 3 4 5 10 14 18 21 26
63 66 69 76 106 69 115 94 81 98 105 104 114 115 115 108 102 94 87 82 79 66 56 51 44 35 29 25 19 12 2 1 3 5 8 13 16 20
68 72 70 63 74 87 106 91 97 110 107 103 117 117 119 114 106 98 90 90 86 78 68 58 50 37 34 26 22 13 4 3 5 1 6 8 12 17
68 74 71 64 60 76 109 104 110 115 110 104 110 116 125 119 112 104 96 95 90 80 68 63 53 45 43 30 23 13 7 7 8 8 1 5 10 15
68 71 70 66 60 67 121 118 113 113 109 104 106 118 119 120 116 112 107 99 87 75 68 60 50 50 47 37 26 20 12 10 10 8 4 4 6 13
59 64 66 66 71 59 117 119 105 112 113 107 110 116 115 118 119 116 112 103 89 80 76 64 53 53 45 34 33 26 19 16 11 9 5 6 7 12
64 67 67 64 72 63 117 130 108 111 115 113 111 110 114 119 121 120 111 102 92 86 80 67 62 56 47 38 36 32 24 19 17 13 8 11 9 11
62 63 66 58 66 73 113 126 118 114 117 116 113 115 117 119 123 119 115 108 98 91 80 70 70 64 52 44 35 32 30 27 23 17 14 14 11 15
62 61 61 54 54 68 116 135 130 116 115 116 117 117 119 124 122 115 117 108 100 95 83 79 75 67 54 46 39 36 33 30 26 17 15 18 22 26
Wind_Direction_850mb
267 254 239 235 237 227 235 239 231 226 233 241 239 240 240 238 234 234 234 234 238 241 245 251 256 265 277 291 302 309 318 327 332 334 334 332 334 339
252 261 246 242 238 239 228 238 234 231 241 240 247 244 243 239 234 233 233 232 236 239 241 245 253 261 275 286 293 306 321 325 331 334 330 331 338 341
252 254 263 245 240 237 234 231 228 225 229 235 241 243 235 233 230 227 228 231 232 236 238 242 249 259 269 279 288 306 319 325 329 328 328 335 339 341
237 253 255 254 243 239 238 230 222 227 228 227 230 235 234 231 229 226 227 229 230 232 236 240 246 254 263 273 286 301 317 321 328 324 333 336 340 340
238 250 246 245 247 248 241 236 234 218 221 225 221 223 226 227 227 226 227 226 227 229 232 236 241 248 259 271 282 299 311 324 321 330 334 338 341 343
250 242 244 246 251 247 244 239 219 212 213 220 216 218 223 223 222 222 226 227 222 226 229 233 236 239 247 259 272 294 313 319 326 329 335 338 344 348
256 254 243 236 248 254 248 242 238 222 218 215 216 211 219 222 223 218 216 219 222 227 228 228 228 229 236 246 270 298 310 321 322 334 334 341 346 355
257 256 250 240 241 253 256 255 253 235 230 215 222 224 221 222 225 216 208 207 212 216 218 216 217 220 223 233 276 296 308 314 329 331 336 347 354 0
261 255 256 245 240 241 254 253 253 254 243 239 228 226 220 220 217 212 204 214 223 220 217 206 204 209 212 237 268 284 301 317 327 332 344 350 1 359
267 255 257 258 241 236 243 249 246 245 243 239 238 235 235 220 210 212 220 222 220 216 204 200 196 198 211 233 247 268 298 320 325 336 350 357 2 360
271 259 255 254 243 238 238 240 241 239 243 241 230 233 226 206 206 204 214 219 208 201 194 190 191 198 205 224 235 252 302 315 328 342 353 1 4 2
275 265 253 249 256 240 235 238 241 241 236 230 229 224 217 218 210 207 216 213 203 193 193 191 191 196 200 212 211 241 290 316 334 343 354 6 7 2
281 275 256 246 264 236 232 234 237 240 238 231 221 213 200 192 197 206 212 217 205 200 197 194 197 199 191 178 203 228 263 326 331 343 356 8 7 1
281 280 266 251 265 236 235 235 238 241 237 229 218 202 192 194 199 203 203 201 208 204 204 200 204 202 200 203 205 215 247 325 330 343 359 7 11 359
278 280 274 254 245 243 237 235 237 233 229 221 214 200 195 196 198 200 201 199 197 201 201 198 199 201 201 206 214 207 208 332 330 347 5 13 5 6
286 290 279 261 251 260 231 230 235 235 229 223 214 203 198 195 197 201 197 195 193 195 192 194 197 201 202 204 212 206 197 99 303 329 20 16 357 12
294 293 288 264 257 249 225 223 230 227 224 217 210 202 193 194 197 198 199 196 196 194 190 194 196 198 198 203 204 196 146 171 152 317 23 22 1 26
288 286 283 271 247 242 216 214 219 220 218 211 208 205 195 195 198 195 198 200 197 193 195 196 198 196 193 190 193 190 168 184 149 135 54 36 12 38
281 279 275 272 242 231 212 212 211 215 214 211 208 204 196 195 196 194 193 197 193 193 194 200 200 200 196 192 194 183 182 176 148 137 117 78 47 59
275 273 274 270 254 245 211 212 211 212 210 206 203 199 195 194 194 195 193 193 192 191 193 196 197 198 204 206 192 187 183 168 158 163 146 113 78 70
281 276 273 265 261 248 212 214 212 212 207 203 200 199 195 195 195 196 195 194 192 194 195 195 193 194 196 201 189 179 178 172 164 159 150 134 124 99
287 278 278 266 251 246 212 215 210 209 208 202 199 197 194 198 198 195 197 193 195 195 196 192 191 193 196 198 190 184 175 170 160 167 145 123 164 130
292 284 281 267 244 230 211 213 211 209 205 200 198 200 197 197 198 199 198 196 194 196 194 189 191 191 195 192 190 187 178 168 154 159 114 111 118 114